,,Stat5,,Stat1,,Stat2,,Stat3,,Stat4,,Wind1,,Wind1,
time,status,PA1M_AVG,status,PR1M_SUM,status,RH1M_AVG,status,SR1M_AVG,status,TA1M_AVG,status,W1dAve1m,status,W1sAve1m,
2001-01-15, 00:00:01,VALID,916.601,VALID,0,VALID,95.865,VALID,-0.0169808,VALID,19.7658,VALID,237,VALID,0.488064,
2001-01-15, 00:01:00,VALID,916.585,VALID,0,VALID,96.1142,VALID,-0.0169808,VALID,19.7425,VALID,239,VALID,0.501478,
2001-01-15, 00:02:00,VALID,916.569,VALID,0,VALID,96.4881,VALID,0,VALID,19.7589,VALID,226,VALID,0.389992,
2001-01-15, 00:03:00,VALID,916.571,VALID,0,VALID,96.6191,VALID,-0.0169808,VALID,19.7621,VALID,217,VALID,0.146034,
2001-01-15, 00:04:00,VALID,916.553,VALID,0,VALID,96.8149,VALID,-0.0679233,VALID,19.7718,VALID,217,VALID,0.0477196,
2001-01-15, 00:05:00,VALID,916.566,VALID,0,VALID,96.8594,VALID,-0.0169808,VALID,19.7855,VALID,217,VALID,0.0804688,
2001-01-15, 00:06:00,VALID,916.552,VALID,0,VALID,96.6063,VALID,-0.0339617,VALID,19.7564,VALID,217,VALID,0.00476372,
2001-01-15, 00:07:00,VALID,916.537,VALID,0,VALID,96.6051,VALID,-0.0169808,VALID,19.7497,VALID,217,VALID,0,
2001-01-15, 00:08:00,VALID,916.527,VALID,0,VALID,96.6979,VALID,-0.0509425,VALID,19.7499,VALID,194,VALID,0.195518,
2001-01-15, 00:09:00,VALID,916.504,VALID,0,VALID,97.0285,VALID,-0.0509425,VALID,19.7755,VALID,168,VALID,0.630078,
2001-01-15, 00:10:00,VALID,916.504,VALID,0,VALID,97.204,VALID,-0.0849042,VALID,19.7944,VALID,170,VALID,0.663857,
2001-01-15, 00:11:00,VALID,916.489,VALID,0,VALID,97.2917,VALID,-0.0169808,VALID,19.7976,VALID,189,VALID,0.732525,
2001-01-15, 00:12:00,VALID,916.487,VALID,0,VALID,97.1824,VALID,-0.0509425,VALID,19.7949,VALID,190,VALID,0.595017,
2001-01-15, 00:13:00,VALID,916.495,VALID,0,VALID,97.2078,VALID,0,VALID,19.7855,VALID,196,VALID,0.636719,
2001-01-15, 00:14:00,VALID,916.492,VALID,0,VALID,97.2358,VALID,0,VALID,19.7884,VALID,170,VALID,0.687934,
2001-01-15, 00:15:00,VALID,916.508,VALID,0,VALID,97.0145,VALID,-0.0339617,VALID,19.779,VALID,149,VALID,0.812691,
2001-01-15, 00:16:00,VALID,916.535,VALID,0,VALID,96.5949,VALID,-0.0339617,VALID,19.7305,VALID,137,VALID,0.868454,
2001-01-15, 00:17:00,VALID,916.571,VALID,0,VALID,96.3609,VALID,0,VALID,19.6657,VALID,128,VALID,0.997533,
2001-01-15, 00:18:00,VALID,916.599,VALID,0,VALID,96.572,VALID,0,VALID,19.6456,VALID,126,VALID,1.12048,
2001-01-15, 00:19:00,VALID,916.638,VALID,0,VALID,96.8937,VALID,0,VALID,19.6552,VALID,131,VALID,0.945503,
2001-01-15, 00:20:00,VALID,916.663,VALID,0,VALID,96.9153,VALID,0,VALID,19.662,VALID,125,VALID,0.862253,
2001-01-15, 00:21:00,VALID,916.699,VALID,0,VALID,96.806,VALID,0.0339617,VALID,19.6657,VALID,132,VALID,0.870888,
2001-01-15, 00:22:00,VALID,916.719,VALID,0,VALID,96.8899,VALID,0,VALID,19.659,VALID,140,VALID,0.888672,
2001-01-15, 00:23:00,VALID,916.729,VALID,0,VALID,96.8975,VALID,0,VALID,19.6585,VALID,144,VALID,0.809333,
2001-01-15, 00:24:00,VALID,916.745,VALID,0,VALID,96.909,VALID,-0.0169808,VALID,19.6689,VALID,152,VALID,0.721205,
2001-01-15, 00:25:00,VALID,916.754,VALID,0,VALID,96.8568,VALID,0,VALID,19.6784,VALID,169,VALID,0.568873,
2001-01-15, 00:26:00,VALID,916.737,VALID,0,VALID,96.6966,VALID,0,VALID,19.6624,VALID,179,VALID,0.410051,
2001-01-15, 00:27:00,VALID,916.714,VALID,0,VALID,96.7373,VALID,0,VALID,19.6463,VALID,190,VALID,0.781661,
2001-01-15, 00:28:00,VALID,916.684,VALID,0,VALID,96.8492,VALID,0,VALID,19.6299,VALID,201,VALID,0.607052,
2001-01-15, 00:29:00,VALID,916.644,VALID,0,VALID,96.7996,VALID,0.0169808,VALID,19.6167,VALID,217,VALID,0.641602,
2001-01-15, 00:30:00,VALID,916.608,VALID,0,VALID,96.8123,VALID,0,VALID,19.617,VALID,215,VALID,0.85074,
2001-01-15, 00:31:00,VALID,916.602,VALID,0,VALID,96.9929,VALID,0,VALID,19.6272,VALID,208,VALID,0.647352,
2001-01-15, 00:32:00,VALID,916.601,VALID,0,VALID,97.1163,VALID,0,VALID,19.617,VALID,209,VALID,0.767948,
2001-01-15, 00:33:00,VALID,916.612,VALID,0,VALID,97.2205,VALID,-0.0169808,VALID,19.6038,VALID,206,VALID,0.655405,
2001-01-15, 00:34:00,VALID,916.626,VALID,0,VALID,97.2574,VALID,0.0169808,VALID,19.5849,VALID,199,VALID,0.485983,
2001-01-15, 00:35:00,VALID,916.628,VALID,0,VALID,97.3299,VALID,0,VALID,19.5583,VALID,198,VALID,0.482227,
2001-01-15, 00:36:00,VALID,916.633,VALID,0,VALID,97.4481,VALID,0,VALID,19.5397,VALID,203,VALID,0.567308,
2001-01-15, 00:37:00,VALID,916.638,VALID,0,VALID,97.6122,VALID,0,VALID,19.5392,VALID,205,VALID,0.658923,
2001-01-15, 00:38:00,VALID,916.63,VALID,0,VALID,97.6898,VALID,0,VALID,19.5327,VALID,225,VALID,0.724095,
2001-01-15, 00:39:00,VALID,916.624,VALID,0,VALID,97.7673,VALID,0.0169808,VALID,19.5394,VALID,223,VALID,0.751562,
2001-01-15, 00:40:00,VALID,916.601,VALID,0,VALID,97.8042,VALID,0,VALID,19.536,VALID,228,VALID,1.03002,
2001-01-15, 00:41:00,VALID,916.596,VALID,0,VALID,97.8487,VALID,0,VALID,19.5397,VALID,229,VALID,0.962582,
2001-01-15, 00:42:00,VALID,916.573,VALID,0,VALID,97.9186,VALID,0,VALID,19.5198,VALID,225,VALID,0.963682,
2001-01-15, 00:43:00,VALID,916.57,VALID,0,VALID,97.9377,VALID,-0.0169808,VALID,19.5335,VALID,214,VALID,1.00239,
2001-01-15, 00:44:00,VALID,916.577,VALID,0,VALID,97.9657,VALID,0,VALID,19.5201,VALID,192,VALID,0.522569,
2001-01-15, 00:45:00,VALID,916.596,VALID,0,VALID,97.9962,VALID,0,VALID,19.5367,VALID,204,VALID,0.509146,
2001-01-15, 00:46:00,VALID,916.608,VALID,0,VALID,97.9911,VALID,-0.0169808,VALID,19.5531,VALID,224,VALID,0.219172,
2001-01-15, 00:47:00,VALID,916.613,VALID,0,VALID,97.9657,VALID,0,VALID,19.5625,VALID,222,VALID,0.534745,
2001-01-15, 00:48:00,VALID,916.611,VALID,0,VALID,97.9148,VALID,0,VALID,19.5725,VALID,219,VALID,0.677632,
2001-01-15, 00:49:00,VALID,916.592,VALID,0,VALID,97.869,VALID,0,VALID,19.572,VALID,228,VALID,0.713605,
2001-01-15, 00:50:00,VALID,916.574,VALID,0,VALID,97.8296,VALID,0,VALID,19.5747,VALID,222,VALID,0.783717,
2001-01-15, 00:51:00,VALID,916.574,VALID,0,VALID,97.7686,VALID,-0.0849042,VALID,19.5894,VALID,211,VALID,0.897821,
2001-01-15, 00:52:00,VALID,916.55,VALID,0,VALID,97.7266,VALID,-0.101885,VALID,19.5829,VALID,191,VALID,0.565755,
2001-01-15, 00:53:00,VALID,916.556,VALID,0,VALID,97.6834,VALID,-0.118866,VALID,19.6093,VALID,179,VALID,0.697424,
2001-01-15, 00:54:00,VALID,916.56,VALID,0,VALID,97.6338,VALID,-0.101885,VALID,19.6189,VALID,178,VALID,0.697545,
2001-01-15, 00:55:00,VALID,916.555,VALID,0,VALID,97.5562,VALID,-0.135847,VALID,19.6249,VALID,188,VALID,0.330181,
2001-01-15, 00:56:00,VALID,916.557,VALID,0,VALID,97.5092,VALID,-0.101885,VALID,19.6311,VALID,187,VALID,0.350084,
2001-01-15, 00:57:00,VALID,916.539,VALID,0,VALID,97.4405,VALID,-0.101885,VALID,19.6314,VALID,185,VALID,0.223067,
2001-01-15, 00:58:00,VALID,916.542,VALID,0,VALID,97.335,VALID,-0.101885,VALID,19.6411,VALID,185,VALID,0.0183699,
2001-01-15, 00:59:00,VALID,916.528,VALID,0,VALID,97.2841,VALID,-0.101885,VALID,19.6473,VALID,194,VALID,0.0615234,
2001-01-15, 01:00:00,VALID,916.508,VALID,0,VALID,97.2498,VALID,-0.101885,VALID,19.6505,VALID,213,VALID,0.599918,
2001-01-15, 01:01:00,VALID,916.512,VALID,0,VALID,97.1608,VALID,-0.118866,VALID,19.6602,VALID,223,VALID,0.850911,
2001-01-15, 01:02:00,VALID,916.493,VALID,0,VALID,97.0527,VALID,-0.101885,VALID,19.6706,VALID,222,VALID,0.84375,
2001-01-15, 01:03:00,VALID,916.486,VALID,0,VALID,96.9497,VALID,-0.101885,VALID,19.6798,VALID,218,VALID,0.858319,
2001-01-15, 01:04:00,VALID,916.483,VALID,0,VALID,96.8759,VALID,-0.101885,VALID,19.6836,VALID,224,VALID,0.638557,
2001-01-15, 01:05:00,VALID,916.486,VALID,0,VALID,96.8429,VALID,-0.101885,VALID,19.6766,VALID,236,VALID,0.388672,
2001-01-15, 01:06:00,VALID,916.482,VALID,0,VALID,96.7399,VALID,-0.0169808,VALID,19.7015,VALID,237,VALID,0.142428,
2001-01-15, 01:07:00,VALID,916.494,VALID,0,VALID,96.6458,VALID,-0.0169808,VALID,19.6975,VALID,230,VALID,0.077097,
2001-01-15, 01:08:00,VALID,916.489,VALID,0,VALID,96.5504,VALID,0,VALID,19.7049,VALID,227,VALID,0.176192,
2001-01-15, 01:09:00,VALID,916.481,VALID,0,VALID,96.4169,VALID,0,VALID,19.7109,VALID,228,VALID,0.495313,
2001-01-15, 01:10:00,VALID,916.473,VALID,0,VALID,96.319,VALID,-0.0169808,VALID,19.7104,VALID,216,VALID,0.304688,
2001-01-15, 01:11:00,VALID,916.456,VALID,0,VALID,96.1422,VALID,0,VALID,19.6972,VALID,210,VALID,0.598067,
2001-01-15, 01:12:00,VALID,916.428,VALID,0,VALID,96.0697,VALID,-0.0169808,VALID,19.7084,VALID,201,VALID,0.808488,
2001-01-15, 01:13:00,VALID,916.408,VALID,0,VALID,96.0417,VALID,-0.0169808,VALID,19.6791,VALID,190,VALID,0.71224,
2001-01-15, 01:14:00,VALID,916.396,VALID,0,VALID,96.0227,VALID,0,VALID,19.659,VALID,181,VALID,0.701172,
2001-01-15, 01:15:00,VALID,916.38,VALID,0,VALID,95.9133,VALID,-0.0339617,VALID,19.6657,VALID,176,VALID,0.657203,
2001-01-15, 01:16:00,VALID,916.37,VALID,0,VALID,95.8993,VALID,0,VALID,19.6657,VALID,165,VALID,0.739443,
2001-01-15, 01:17:00,VALID,916.362,VALID,0,VALID,95.9286,VALID,-0.0169808,VALID,19.6592,VALID,153,VALID,0.76213,
2001-01-15, 01:18:00,VALID,916.339,VALID,0,VALID,95.9019,VALID,0,VALID,19.6528,VALID,159,VALID,0.682566,
2001-01-15, 01:19:00,VALID,916.322,VALID,0,VALID,95.6908,VALID,-0.0169808,VALID,19.6336,VALID,163,VALID,0.762195,
2001-01-15, 01:20:00,VALID,916.318,VALID,0,VALID,95.5585,VALID,-0.0169808,VALID,19.5981,VALID,163,VALID,0.642887,
2001-01-15, 01:21:00,VALID,916.313,VALID,0,VALID,95.4225,VALID,0,VALID,19.5685,VALID,173,VALID,0.685444,
2001-01-15, 01:22:00,VALID,916.321,VALID,0,VALID,95.4263,VALID,0,VALID,19.5494,VALID,175,VALID,0.714193,
2001-01-15, 01:23:00,VALID,916.31,VALID,0,VALID,95.4021,VALID,0,VALID,19.5298,VALID,168,VALID,0.523438,
2001-01-15, 01:24:00,VALID,916.304,VALID,0,VALID,95.4441,VALID,0,VALID,19.523,VALID,174,VALID,0.567634,
2001-01-15, 01:25:00,VALID,916.289,VALID,0,VALID,95.4428,VALID,-0.0169808,VALID,19.5402,VALID,174,VALID,0.491365,
2001-01-15, 01:26:00,VALID,916.269,VALID,0,VALID,95.3818,VALID,-0.0169808,VALID,19.5625,VALID,188,VALID,0.268581,
2001-01-15, 01:27:00,VALID,916.238,VALID,0,VALID,95.3932,VALID,-0.0169808,VALID,19.5621,VALID,197,VALID,0.599712,
2001-01-15, 01:28:00,VALID,916.226,VALID,0,VALID,95.3996,VALID,0,VALID,19.5785,VALID,195,VALID,0.656461,
2001-01-15, 01:29:00,VALID,916.201,VALID,0,VALID,95.3869,VALID,0,VALID,19.5914,VALID,196,VALID,0.537891,
2001-01-15, 01:30:00,VALID,916.195,VALID,0,VALID,95.4225,VALID,-0.0169808,VALID,19.5911,VALID,201,VALID,0.52426,
2001-01-15, 01:31:00,VALID,916.194,VALID,0,VALID,95.4021,VALID,0,VALID,19.6008,VALID,202,VALID,0.642795,
2001-01-15, 01:32:00,VALID,916.177,VALID,0,VALID,95.2775,VALID,0,VALID,19.6331,VALID,200,VALID,0.707981,
2001-01-15, 01:33:00,VALID,916.172,VALID,0,VALID,95.0194,VALID,-0.0169808,VALID,19.689,VALID,212,VALID,0.517948,
2001-01-15, 01:34:00,VALID,916.164,VALID,0,VALID,94.8439,VALID,-0.0169808,VALID,19.7233,VALID,215,VALID,0.653263,
2001-01-15, 01:35:00,VALID,916.165,VALID,0,VALID,94.732,VALID,-0.0169808,VALID,19.7462,VALID,228,VALID,0.514844,
2001-01-15, 01:36:00,VALID,916.168,VALID,0,VALID,94.7028,VALID,-0.0169808,VALID,19.7686,VALID,221,VALID,0.550681,
2001-01-15, 01:37:00,VALID,916.159,VALID,0,VALID,94.7562,VALID,-0.0169808,VALID,19.7914,VALID,230,VALID,0.740954,
2001-01-15, 01:38:00,VALID,916.155,VALID,0,VALID,95.0499,VALID,-0.0339617,VALID,19.8014,VALID,226,VALID,0.715461,
2001-01-15, 01:39:00,VALID,916.146,VALID,0,VALID,95.2572,VALID,-0.0169808,VALID,19.7855,VALID,216,VALID,0.639648,
2001-01-15, 01:40:00,VALID,916.122,VALID,0,VALID,95.4352,VALID,0,VALID,19.7527,VALID,212,VALID,0.524465,
2001-01-15, 01:41:00,VALID,916.116,VALID,0,VALID,95.5929,VALID,0,VALID,19.7139,VALID,218,VALID,0.55551,
2001-01-15, 01:42:00,VALID,916.101,VALID,0,VALID,95.8078,VALID,-0.0339617,VALID,19.6784,VALID,226,VALID,0.539274,
2001-01-15, 01:43:00,VALID,916.089,VALID,0,VALID,95.9044,VALID,-0.0169808,VALID,19.6525,VALID,207,VALID,0.78928,
2001-01-15, 01:44:00,VALID,916.08,VALID,0,VALID,95.9464,VALID,0,VALID,19.6296,VALID,198,VALID,0.442491,
2001-01-15, 01:45:00,VALID,916.064,VALID,0,VALID,95.9693,VALID,-0.0169808,VALID,19.6301,VALID,186,VALID,0.404726,
2001-01-15, 01:46:00,VALID,916.07,VALID,0,VALID,95.9591,VALID,0,VALID,19.617,VALID,184,VALID,0.483319,
2001-01-15, 01:47:00,VALID,916.049,VALID,0,VALID,95.9019,VALID,0,VALID,19.6202,VALID,182,VALID,0.262747,
2001-01-15, 01:48:00,VALID,916.049,VALID,0,VALID,95.7912,VALID,0,VALID,19.6234,VALID,200,VALID,0.0587993,
2001-01-15, 01:49:00,VALID,916.042,VALID,0,VALID,95.5916,VALID,0,VALID,19.6108,VALID,182,VALID,0,
2001-01-15, 01:50:00,VALID,916.042,VALID,0,VALID,95.598,VALID,0,VALID,19.6006,VALID,182,VALID,0,
2001-01-15, 01:51:00,VALID,916.026,VALID,0,VALID,95.6285,VALID,-0.0169808,VALID,19.6075,VALID,182,VALID,0.0964227,
2001-01-15, 01:52:00,VALID,916.001,VALID,0,VALID,95.6208,VALID,0.0169808,VALID,19.6336,VALID,177,VALID,0.345269,
2001-01-15, 01:53:00,VALID,915.972,VALID,0,VALID,95.5636,VALID,0,VALID,19.6336,VALID,167,VALID,0.336993,
2001-01-15, 01:54:00,VALID,915.956,VALID,0,VALID,95.4021,VALID,0,VALID,19.6393,VALID,162,VALID,0.291071,
2001-01-15, 01:55:00,VALID,915.937,VALID,0,VALID,95.2648,VALID,0,VALID,19.653,VALID,162,VALID,0.246094,
2001-01-15, 01:56:00,VALID,915.936,VALID,0,VALID,95.1033,VALID,0,VALID,19.659,VALID,162,VALID,0.157306,
2001-01-15, 01:57:00,VALID,915.907,VALID,0,VALID,94.9647,VALID,0,VALID,19.6456,VALID,162,VALID,0,
2001-01-15, 01:58:00,VALID,915.901,VALID,0,VALID,94.9761,VALID,0,VALID,19.6485,VALID,162,VALID,0.309333,
2001-01-15, 01:59:00,VALID,915.892,VALID,0,VALID,94.9189,VALID,0,VALID,19.6622,VALID,166,VALID,0.424219,
2001-01-15, 02:00:00,VALID,915.886,VALID,0,VALID,94.9138,VALID,0,VALID,19.6622,VALID,172,VALID,0.624383,
2001-01-15, 02:01:00,VALID,915.883,VALID,0,VALID,94.8388,VALID,0,VALID,19.6617,VALID,193,VALID,0.667318,
2001-01-15, 02:02:00,VALID,915.884,VALID,0,VALID,94.8083,VALID,0,VALID,19.6721,VALID,204,VALID,0.850084,
2001-01-15, 02:03:00,VALID,915.886,VALID,0,VALID,94.7663,VALID,0,VALID,19.6784,VALID,193,VALID,1.00739,
2001-01-15, 02:04:00,VALID,915.907,VALID,0,VALID,94.6506,VALID,0.0509425,VALID,19.7238,VALID,197,VALID,1.19577,
2001-01-15, 02:05:00,VALID,915.929,VALID,0,VALID,94.526,VALID,0.0339617,VALID,19.7328,VALID,190,VALID,0.983984,
2001-01-15, 02:06:00,VALID,915.928,VALID,0,VALID,94.3696,VALID,0,VALID,19.7782,VALID,194,VALID,1.03706,
2001-01-15, 02:07:00,VALID,915.922,VALID,0,VALID,94.3022,VALID,-0.0339617,VALID,19.7954,VALID,195,VALID,1.11431,
2001-01-15, 02:08:00,VALID,915.917,VALID,0,VALID,94.2984,VALID,0,VALID,19.7879,VALID,185,VALID,0.833882,
2001-01-15, 02:09:00,VALID,915.912,VALID,0,VALID,94.4039,VALID,0,VALID,19.7852,VALID,192,VALID,0.576367,
2001-01-15, 02:10:00,VALID,915.892,VALID,0,VALID,94.6176,VALID,0,VALID,19.7822,VALID,199,VALID,0.529811,
2001-01-15, 02:11:00,VALID,915.894,VALID,0,VALID,94.8083,VALID,-0.0169808,VALID,19.7559,VALID,208,VALID,0.81065,
2001-01-15, 02:12:00,VALID,915.906,VALID,0,VALID,94.9978,VALID,0,VALID,19.7432,VALID,215,VALID,0.985431,
2001-01-15, 02:13:00,VALID,915.917,VALID,0,VALID,95.2114,VALID,0,VALID,19.7072,VALID,207,VALID,0.869358,
2001-01-15, 02:14:00,VALID,915.943,VALID,0,VALID,95.411,VALID,-0.0169808,VALID,19.6918,VALID,200,VALID,0.900174,
2001-01-15, 02:15:00,VALID,915.963,VALID,0,VALID,95.5916,VALID,-0.0339617,VALID,19.6555,VALID,202,VALID,0.930831,
2001-01-15, 02:16:00,VALID,915.981,VALID,0,VALID,95.7709,VALID,0.0169808,VALID,19.6428,VALID,210,VALID,0.883446,
2001-01-15, 02:17:00,VALID,915.986,VALID,0,VALID,95.8904,VALID,0,VALID,19.6269,VALID,215,VALID,1.09231,
2001-01-15, 02:18:00,VALID,915.993,VALID,0,VALID,96.0328,VALID,-0.0169808,VALID,19.5911,VALID,213,VALID,0.831209,
2001-01-15, 02:19:00,VALID,915.995,VALID,0,VALID,96.2452,VALID,-0.0339617,VALID,19.5516,VALID,212,VALID,1.01944,
2001-01-15, 02:20:00,VALID,915.983,VALID,0,VALID,96.4538,VALID,0,VALID,19.5327,VALID,210,VALID,0.82278,
2001-01-15, 02:21:00,VALID,915.992,VALID,0,VALID,96.6788,VALID,-0.0679233,VALID,19.4972,VALID,201,VALID,0.807492,
2001-01-15, 02:22:00,VALID,915.972,VALID,0,VALID,96.7551,VALID,-0.0339617,VALID,19.4815,VALID,197,VALID,0.609592,
2001-01-15, 02:23:00,VALID,915.964,VALID,0,VALID,96.8492,VALID,-0.0339617,VALID,19.4644,VALID,186,VALID,0.65984,
2001-01-15, 02:24:00,VALID,915.944,VALID,0,VALID,96.8251,VALID,-0.0169808,VALID,19.4619,VALID,179,VALID,0.8875,
2001-01-15, 02:25:00,VALID,915.925,VALID,0,VALID,96.7691,VALID,0,VALID,19.4691,VALID,194,VALID,0.811678,
2001-01-15, 02:26:00,VALID,915.922,VALID,0,VALID,96.8187,VALID,0,VALID,19.4584,VALID,218,VALID,0.648649,
2001-01-15, 02:27:00,VALID,915.907,VALID,0,VALID,96.9128,VALID,0,VALID,19.4684,VALID,217,VALID,1.05633,
2001-01-15, 02:28:00,VALID,915.908,VALID,0,VALID,96.9802,VALID,0,VALID,19.4654,VALID,207,VALID,1.01394,
2001-01-15, 02:29:00,VALID,915.885,VALID,0,VALID,97.0272,VALID,0,VALID,19.4525,VALID,209,VALID,0.864258,
2001-01-15, 02:30:00,VALID,915.857,VALID,0,VALID,97.0781,VALID,0.0169808,VALID,19.4557,VALID,195,VALID,0.792763,
2001-01-15, 02:31:00,VALID,915.839,VALID,0,VALID,97.0705,VALID,0,VALID,19.4483,VALID,189,VALID,0.653429,
2001-01-15, 02:32:00,VALID,915.801,VALID,0,VALID,96.998,VALID,0,VALID,19.4622,VALID,188,VALID,0.510769,
2001-01-15, 02:33:00,VALID,915.78,VALID,0,VALID,96.9242,VALID,-0.0169808,VALID,19.4751,VALID,199,VALID,0.563978,
2001-01-15, 02:34:00,VALID,915.755,VALID,0,VALID,96.867,VALID,0,VALID,19.4813,VALID,213,VALID,0.710018,
2001-01-15, 02:35:00,VALID,915.74,VALID,0,VALID,96.7856,VALID,0,VALID,19.5074,VALID,225,VALID,0.641016,
2001-01-15, 02:36:00,VALID,915.72,VALID,0,VALID,96.6241,VALID,-0.0169808,VALID,19.5302,VALID,212,VALID,1.10777,
2001-01-15, 02:37:00,VALID,915.71,VALID,0,VALID,96.5504,VALID,-0.0679233,VALID,19.5362,VALID,218,VALID,0.862664,
2001-01-15, 02:38:00,VALID,915.703,VALID,0,VALID,96.441,VALID,0,VALID,19.5526,VALID,221,VALID,1.08635,
2001-01-15, 02:39:00,VALID,915.686,VALID,0,VALID,96.3113,VALID,0,VALID,19.5725,VALID,217,VALID,1.07422,
2001-01-15, 02:40:00,VALID,915.68,VALID,0,VALID,96.2274,VALID,-0.0169808,VALID,19.5688,VALID,218,VALID,0.857319,
2001-01-15, 02:41:00,VALID,915.669,VALID,0,VALID,96.1753,VALID,-0.0339617,VALID,19.5683,VALID,226,VALID,0.864926,
2001-01-15, 02:42:00,VALID,915.654,VALID,0,VALID,96.1028,VALID,-0.0169808,VALID,19.5814,VALID,223,VALID,1.09459,
2001-01-15, 02:43:00,VALID,915.632,VALID,0,VALID,96.0596,VALID,0,VALID,19.6011,VALID,227,VALID,1.11415,
2001-01-15, 02:44:00,VALID,915.603,VALID,0,VALID,95.9845,VALID,0.0169808,VALID,19.6135,VALID,225,VALID,1.20052,
2001-01-15, 02:45:00,VALID,915.59,VALID,0,VALID,95.8726,VALID,0,VALID,19.6465,VALID,221,VALID,1.07889,
2001-01-15, 02:46:00,VALID,915.569,VALID,0,VALID,95.8116,VALID,0,VALID,19.6528,VALID,220,VALID,1.38218,
2001-01-15, 02:47:00,VALID,915.54,VALID,0,VALID,95.7378,VALID,0,VALID,19.656,VALID,228,VALID,1.059,
2001-01-15, 02:48:00,VALID,915.517,VALID,0,VALID,95.6628,VALID,-0.0339617,VALID,19.6555,VALID,213,VALID,1.04873,
2001-01-15, 02:49:00,VALID,915.484,VALID,0,VALID,95.5891,VALID,0,VALID,19.6786,VALID,218,VALID,0.982088,
2001-01-15, 02:50:00,VALID,915.444,VALID,0,VALID,95.4988,VALID,-0.0339617,VALID,19.6823,VALID,219,VALID,0.943873,
2001-01-15, 02:51:00,VALID,915.412,VALID,0,VALID,95.4492,VALID,0,VALID,19.6781,VALID,206,VALID,0.855058,
2001-01-15, 02:52:00,VALID,915.372,VALID,0,VALID,95.4047,VALID,0,VALID,19.7012,VALID,208,VALID,0.689236,
2001-01-15, 02:53:00,VALID,915.347,VALID,0,VALID,95.3386,VALID,0,VALID,19.7074,VALID,215,VALID,1.0454,
2001-01-15, 02:54:00,VALID,915.309,VALID,0,VALID,95.2902,VALID,0,VALID,19.7171,VALID,189,VALID,0.459598,
2001-01-15, 02:55:00,VALID,915.294,VALID,0,VALID,95.1618,VALID,0,VALID,19.7201,VALID,137,VALID,0.712377,
2001-01-15, 02:56:00,VALID,915.279,VALID,0,VALID,94.9901,VALID,-0.0169808,VALID,19.6818,VALID,111,VALID,1.05828,
2001-01-15, 02:57:00,VALID,915.25,VALID,0,VALID,95.0728,VALID,-0.0169808,VALID,19.6364,VALID,112,VALID,1.10465,
2001-01-15, 02:58:00,VALID,915.21,VALID,0,VALID,95.3093,VALID,-0.0339617,VALID,19.5978,VALID,114,VALID,1.0606,
2001-01-15, 02:59:00,VALID,915.17,VALID,0,VALID,95.4708,VALID,0,VALID,19.5752,VALID,118,VALID,0.934766,
2001-01-15, 03:00:00,VALID,915.156,VALID,0,VALID,95.6819,VALID,0.0169808,VALID,19.5494,VALID,116,VALID,0.578125,
2001-01-15, 03:01:00,VALID,915.134,VALID,0,VALID,95.8942,VALID,0,VALID,19.5071,VALID,107,VALID,0.546875,
2001-01-15, 03:02:00,VALID,915.139,VALID,0,VALID,96.0239,VALID,0,VALID,19.4875,VALID,106,VALID,0.151394,
2001-01-15, 03:03:00,VALID,915.133,VALID,0,VALID,96.1002,VALID,0,VALID,19.4848,VALID,129,VALID,0.0194257,
2001-01-15, 03:04:00,VALID,915.114,VALID,0,VALID,96.1613,VALID,-0.0509425,VALID,19.4882,VALID,189,VALID,0.0873162,
2001-01-15, 03:05:00,VALID,915.099,VALID,0,VALID,96.1676,VALID,0,VALID,19.4845,VALID,209,VALID,0.572266,
2001-01-15, 03:06:00,VALID,915.078,VALID,0,VALID,96.1791,VALID,0,VALID,19.4845,VALID,221,VALID,0.688702,
2001-01-15, 03:07:00,VALID,915.058,VALID,0,VALID,96.1994,VALID,0,VALID,19.5079,VALID,226,VALID,0.424342,
2001-01-15, 03:08:00,VALID,915.044,VALID,0,VALID,96.1715,VALID,0,VALID,19.5268,VALID,217,VALID,0.212171,
2001-01-15, 03:09:00,VALID,915.015,VALID,0,VALID,95.982,VALID,-0.0169808,VALID,19.5529,VALID,171,VALID,0.342187,
2001-01-15, 03:10:00,VALID,914.979,VALID,0,VALID,95.7137,VALID,0,VALID,19.5397,VALID,160,VALID,0.419408,
2001-01-15, 03:11:00,VALID,914.967,VALID,0,VALID,95.6755,VALID,0,VALID,19.5432,VALID,153,VALID,0.380757,
2001-01-15, 03:12:00,VALID,914.958,VALID,0,VALID,95.8065,VALID,0,VALID,19.5397,VALID,153,VALID,0.313767,
2001-01-15, 03:13:00,VALID,914.963,VALID,0,VALID,95.9095,VALID,0,VALID,19.5529,VALID,153,VALID,0.289931,
2001-01-15, 03:14:00,VALID,914.976,VALID,0,VALID,95.9413,VALID,0,VALID,19.5653,VALID,176,VALID,0.296441,
2001-01-15, 03:15:00,VALID,914.975,VALID,0,VALID,95.8624,VALID,-0.0169808,VALID,19.5809,VALID,207,VALID,0,
2001-01-15, 03:16:00,VALID,914.97,VALID,0,VALID,95.8103,VALID,-0.0169808,VALID,19.6008,VALID,213,VALID,0.438556,
2001-01-15, 03:17:00,VALID,914.971,VALID,0,VALID,95.6488,VALID,-0.0169808,VALID,19.6396,VALID,205,VALID,0.895148,
2001-01-15, 03:18:00,VALID,914.966,VALID,0,VALID,95.294,VALID,-0.0169808,VALID,19.6654,VALID,189,VALID,0.672081,
2001-01-15, 03:19:00,VALID,914.956,VALID,0,VALID,95.1287,VALID,0,VALID,19.695,VALID,177,VALID,0.63548,
2001-01-15, 03:20:00,VALID,914.959,VALID,0,VALID,95.0245,VALID,0,VALID,19.6982,VALID,182,VALID,0.668997,
2001-01-15, 03:21:00,VALID,914.987,VALID,0,VALID,95.0346,VALID,-0.0169808,VALID,19.6652,VALID,176,VALID,0.900082,
2001-01-15, 03:22:00,VALID,915.001,VALID,0,VALID,95.0448,VALID,-0.0169808,VALID,19.6334,VALID,170,VALID,1.0638,
2001-01-15, 03:23:00,VALID,915.018,VALID,0,VALID,95.2788,VALID,-0.0339617,VALID,19.6078,VALID,187,VALID,1.07644,
2001-01-15, 03:24:00,VALID,915.019,VALID,0,VALID,95.3856,VALID,0,VALID,19.5817,VALID,188,VALID,0.854018,
2001-01-15, 03:25:00,VALID,915.025,VALID,0,VALID,95.4594,VALID,0,VALID,19.5725,VALID,195,VALID,0.769737,
2001-01-15, 03:26:00,VALID,915.022,VALID,0,VALID,95.4543,VALID,-0.0169808,VALID,19.5563,VALID,162,VALID,0.652872,
2001-01-15, 03:27:00,VALID,915.011,VALID,0,VALID,95.425,VALID,-0.0509425,VALID,19.5206,VALID,146,VALID,0.665296,
2001-01-15, 03:28:00,VALID,915.007,VALID,0,VALID,95.4276,VALID,-0.0339617,VALID,19.482,VALID,149,VALID,0.506968,
2001-01-15, 03:29:00,VALID,914.999,VALID,0,VALID,95.6348,VALID,-0.0679233,VALID,19.44,VALID,166,VALID,0.529688,
2001-01-15, 03:30:00,VALID,914.987,VALID,0,VALID,95.8904,VALID,-0.0849042,VALID,19.4241,VALID,180,VALID,0.575247,
2001-01-15, 03:31:00,VALID,914.977,VALID,0,VALID,96.1689,VALID,-0.0339617,VALID,19.4147,VALID,211,VALID,0.593967,
2001-01-15, 03:32:00,VALID,914.961,VALID,0,VALID,96.3711,VALID,-0.0339617,VALID,19.4075,VALID,223,VALID,0.629434,
2001-01-15, 03:33:00,VALID,914.941,VALID,0,VALID,96.5097,VALID,-0.0339617,VALID,19.4269,VALID,225,VALID,0.432644,
2001-01-15, 03:34:00,VALID,914.916,VALID,0,VALID,96.5466,VALID,-0.0339617,VALID,19.4331,VALID,227,VALID,0.576517,
2001-01-15, 03:35:00,VALID,914.916,VALID,0,VALID,96.5021,VALID,-0.0339617,VALID,19.4559,VALID,226,VALID,0.883984,